Simultaneous Nadir Overpasses (SNOs) Predictions

Prediction of SNOs over PacNW region [( 10.00, 139.50) to ( 22.70, 165.60)] between AQUA and NPP Satellites:

Table of predicted SNOs over PacNW region for the next 30.0 days since TLE Epoch: 10/20/2018
Index Date (AQUA) Time (AQUA) AQUA Lat,Lon Date (NPP) Time (NPP) NPP Lat,Lon Distance(km) Time Diff (sec)
1 10/21/2018 03:31:49 22.65, 147.50 10/21/2018 03:28:20 24.70, 145.25 323.04 209
2 10/26/2018 15:59:23 22.61, 147.45 10/26/2018 16:02:12 23.26, 144.55 306.64 169
3 11/03/2018 15:09:53 22.62, 159.82 11/03/2018 15:11:26 23.18, 157.20 275.84 93
4 11/06/2018 03:31:42 22.65, 147.51 11/06/2018 03:28:13 24.57, 145.27 313.32 209
5 11/11/2018 15:59:16 22.62, 147.48 11/11/2018 16:02:07 23.30, 144.54 310.40 171




NCC Satellite Simultaneous Nadir Overpasses (SNOs) Prediction Service
